Weather History for K2G4 - November, 2012

Change the Weather History Date:

Friday, November 9, 2012

  Actual Average (KMGW) Record (KMGW)
Temperature  
Mean Temperature 37 °F 47 °F  
Max Temperature 44 °F 57 °F 80 °F (1986)
Min Temperature 30 °F 38 °F 17 °F (1991)
Degree Days  
Heating Degree Days 28 18  
Month to date heating degree days 150  
Since 1 July heating degree days 592  
Cooling Degree Days 0 0  
Month to date cooling degree days 0  
Year to date cooling degree days 813  
Moisture  
Dew Point 31 °F    
Average Humidity 79    
Maximum Humidity 100    
Minimum Humidity 57    
Precipitation  
Precipitation 0.00 in 0.11 in - ()
Month to date precipitation 0.99  
Year to date precipitation 36.45  
Sea Level Pressure  
Sea Level Pressure 30.16 in    
Wind  
Wind Speed 10 mph (West)    
Max Wind Speed 14 mph    
Max Gust Speed 21 mph    
Visibility 10 miles    
Events      
T = Trace of Precipitation, MM = Missing Value Source: NWS Daily Summary

Daily Weather History Graph

Daily Weather History Graph

Search for Another Location

Airport or City:

Trip Planner

Search our weather history database for the weather conditions in past years. The results will help you decide how hot, cold, wet, or windy it might be!

Date:

Astronomy

Nov. 09, 2012 Rise Set
Actual Time 6:55 AM EST 5:06 PM EST
Civil Twilight 6:26 AM EST 5:35 PM EST
Nautical Twilight 5:54 AM EST 6:07 PM EST
Astronomical Twilight 5:22 AM EST 6:38 PM EST
Moon 1:53 AM EST (11/9) 2:18 PM EST (11/9)
Length of Visible Light 11h 08m
Length of Day
10h 11m
Waning Crescent, 23% of the Moon is Illuminated
Nov 9
Waning Crescent
Nov 13
New
Nov 20
First Quarter
Nov 28
Full
Dec 6
Last Quarter

Hourly Weather History & Observations

Time (EST) Temp. Windchill Dew Point Humidity Pressure Visibility Wind Dir Wind Speed Gust Speed Precip Events Conditions
12:05 AM 32.0 °F 23.6 °F 28.4 °F 87% 30.08 in 10.0 mi WNW 10.4 mph - N/A   Scattered Clouds
12:25 AM 30.2 °F 21.3 °F 28.4 °F 93% 30.08 in 10.0 mi West 10.4 mph 16.1 mph N/A   Scattered Clouds
12:45 AM 30.2 °F 20.8 °F 28.4 °F 93% 30.07 in 10.0 mi West 11.5 mph 17.3 mph N/A   Clear
1:05 AM 30.2 °F 20.2 °F 28.4 °F 93% 30.07 in 10.0 mi West 12.7 mph 16.1 mph N/A   Clear
1:30 AM 30.2 °F 20.8 °F 28.4 °F 93% 30.08 in 10.0 mi West 11.5 mph 17.3 mph N/A   Clear
1:50 AM 30.2 °F 20.2 °F 28.4 °F 93% 30.08 in 10.0 mi West 12.7 mph 19.6 mph N/A   Clear
2:10 AM 30.2 °F 20.2 °F 28.4 °F 93% 30.08 in 10.0 mi West 12.7 mph 19.6 mph N/A   Clear
2:30 AM 30.2 °F 19.8 °F 30.2 °F 100% 30.08 in 10.0 mi West 13.8 mph 19.6 mph N/A   Clear
2:55 AM 30.2 °F 19.8 °F 30.2 °F 100% 30.08 in 10.0 mi West 13.8 mph 20.7 mph N/A   Clear
3:35 AM 32.0 °F 22.5 °F 30.2 °F 93% 30.09 in 10.0 mi West 12.7 mph 19.6 mph N/A   Clear
3:55 AM 32.0 °F 22.5 °F 30.2 °F 93% 30.10 in 10.0 mi West 12.7 mph 18.4 mph N/A   Scattered Clouds
4:20 AM 32.0 °F 23.0 °F 30.2 °F 93% 30.11 in 10.0 mi West 11.5 mph 20.7 mph N/A   Overcast
4:40 AM 32.0 °F 23.0 °F 30.2 °F 93% 30.11 in 10.0 mi West 11.5 mph 19.6 mph N/A   Mostly Cloudy
5:00 AM 32.0 °F 22.5 °F 30.2 °F 93% 30.12 in 10.0 mi West 12.7 mph 17.3 mph N/A   Scattered Clouds
5:20 AM 32.0 °F 23.0 °F 30.2 °F 93% 30.13 in 10.0 mi West 11.5 mph 17.3 mph N/A   Clear
5:45 AM 32.0 °F 22.5 °F 30.2 °F 93% 30.14 in 10.0 mi WNW 12.7 mph 20.7 mph N/A   Clear
6:05 AM 32.0 °F 23.0 °F 30.2 °F 93% 30.14 in 10.0 mi WNW 11.5 mph 17.3 mph N/A   Clear
6:25 AM 32.0 °F 22.1 °F 30.2 °F 93% 30.15 in 10.0 mi West 13.8 mph 18.4 mph N/A   Clear
6:45 AM 32.0 °F 23.0 °F 30.2 °F 93% 30.15 in 10.0 mi West 11.5 mph 20.7 mph N/A   Clear
7:30 AM 32.0 °F 23.0 °F 30.2 °F 93% 30.17 in 7.0 mi West 11.5 mph 19.6 mph N/A   Clear
7:50 AM 32.0 °F 22.5 °F 32.0 °F 100% 30.18 in 7.0 mi West 12.7 mph 17.3 mph N/A   Clear
8:10 AM 32.0 °F 23.0 °F 32.0 °F 100% 30.18 in 7.0 mi West 11.5 mph 19.6 mph N/A   Clear
8:35 AM 33.8 °F 25.3 °F 32.0 °F 93% 30.19 in 7.0 mi West 11.5 mph 19.6 mph N/A   Clear
8:55 AM 33.8 °F 27.0 °F 32.0 °F 93% 30.19 in 7.0 mi West 8.1 mph 16.1 mph N/A   Clear
9:15 AM 35.6 °F 28.6 °F 32.0 °F 87% 30.19 in 7.0 mi West 9.2 mph - N/A   Clear
9:35 AM 35.6 °F 29.2 °F 32.0 °F 87% 30.20 in 7.0 mi West 8.1 mph 18.4 mph N/A   Clear
10:00 AM 37.4 °F 29.8 °F 32.0 °F 81% 30.20 in 7.0 mi West 11.5 mph 16.1 mph N/A   Clear
10:20 AM 37.4 °F 30.8 °F 32.0 °F 81% 30.21 in 7.0 mi West 9.2 mph 16.1 mph N/A   Clear
10:40 AM 37.4 °F 32.1 °F 32.0 °F 81% 30.21 in 7.0 mi WNW 6.9 mph - N/A   Clear
11:00 AM 39.2 °F 34.2 °F 32.0 °F 75% 30.21 in 7.0 mi West 6.9 mph - N/A   Clear
11:25 AM 41.0 °F 35.8 °F 32.0 °F 70% 30.21 in 10.0 mi West 8.1 mph - N/A   Clear
11:45 AM 41.0 °F 36.4 °F 32.0 °F 70% 30.21 in 10.0 mi West 6.9 mph - N/A   Clear
12:05 PM 41.0 °F 35.2 °F 32.0 °F 70% 30.20 in 10.0 mi WSW 9.2 mph - N/A   Clear
12:25 PM 41.0 °F 36.4 °F 32.0 °F 70% 30.19 in 10.0 mi West 6.9 mph - N/A   Clear
1:50 PM 42.8 °F 40.1 °F 32.0 °F 66% 30.17 in 10.0 mi West 4.6 mph - N/A   Clear
2:15 PM 42.8 °F 38.6 °F 32.0 °F 66% 30.16 in 10.0 mi WSW 6.9 mph - N/A   Clear
2:35 PM 42.8 °F 38.6 °F 32.0 °F 66% 30.16 in 10.0 mi WSW 6.9 mph - N/A   Clear
2:55 PM 42.8 °F 38.0 °F 32.0 °F 66% 30.16 in 10.0 mi WSW 8.1 mph - N/A   Clear
3:15 PM 42.8 °F 38.6 °F 32.0 °F 66% 30.15 in 10.0 mi West 6.9 mph - N/A   Clear
3:40 PM 44.6 °F 40.7 °F 32.0 °F 61% 30.16 in 10.0 mi West 6.9 mph - N/A   Clear
4:00 PM 44.6 °F 41.4 °F 32.0 °F 61% 30.16 in 10.0 mi West 5.8 mph - N/A   Clear
4:20 PM 42.8 °F 40.1 °F 32.0 °F 66% 30.16 in 10.0 mi WSW 4.6 mph - N/A   Clear
4:40 PM 42.8 °F 39.3 °F 32.0 °F 66% 30.17 in 10.0 mi West 5.8 mph - N/A   Clear
5:05 PM 41.0 °F 38.0 °F 32.0 °F 70% 30.17 in 10.0 mi West 4.6 mph - N/A   Clear
5:25 PM 41.0 °F 37.1 °F 32.0 °F 70% 30.18 in 10.0 mi West 5.8 mph - N/A   Clear
5:45 PM 41.0 °F 38.0 °F 32.0 °F 70% 30.19 in 10.0 mi West 4.6 mph - N/A   Clear
6:05 PM 41.0 °F 38.0 °F 32.0 °F 70% 30.19 in 10.0 mi WSW 4.6 mph - N/A   Clear
6:50 PM 41.0 °F 36.4 °F 32.0 °F 70% 30.19 in 10.0 mi WSW 6.9 mph - N/A   Clear
7:10 PM 41.0 °F 36.4 °F 32.0 °F 70% 30.19 in 10.0 mi WSW 6.9 mph - N/A   Clear
7:30 PM 41.0 °F 35.8 °F 32.0 °F 70% 30.19 in 10.0 mi SW 8.1 mph - N/A   Clear
7:55 PM 41.0 °F 34.7 °F 32.0 °F 70% 30.18 in 10.0 mi SW 10.4 mph - N/A   Clear
8:15 PM 41.0 °F 34.7 °F 32.0 °F 70% 30.18 in 10.0 mi SW 10.4 mph - N/A   Clear
8:35 PM 41.0 °F 34.7 °F 32.0 °F 70% 30.19 in 10.0 mi SW 10.4 mph - N/A   Clear
8:55 PM 41.0 °F 34.7 °F 32.0 °F 70% 30.19 in 10.0 mi SW 10.4 mph - N/A   Clear
9:20 PM 41.0 °F 34.3 °F 32.0 °F 70% 30.19 in 10.0 mi SW 11.5 mph - N/A   Clear
9:40 PM 41.0 °F 34.7 °F 32.0 °F 70% 30.19 in 10.0 mi SW 10.4 mph - N/A   Clear
10:00 PM 41.0 °F 35.2 °F 32.0 °F 70% 30.19 in 10.0 mi SW 9.2 mph - N/A   Clear
10:20 PM 41.0 °F 34.7 °F 30.2 °F 65% 30.20 in 10.0 mi SW 10.4 mph - N/A   Clear
10:45 PM 41.0 °F 34.7 °F 30.2 °F 65% 30.19 in 10.0 mi SW 10.4 mph - N/A   Clear
11:05 PM 41.0 °F 35.2 °F 30.2 °F 65% 30.20 in 10.0 mi SW 9.2 mph - N/A   Clear
11:25 PM 41.0 °F 35.2 °F 28.4 °F 61% 30.19 in 10.0 mi SW 9.2 mph - N/A   Clear
11:45 PM 41.0 °F 35.8 °F 26.6 °F 57% 30.19 in 10.0 mi SW 8.1 mph - N/A   Clear